Temp
21 20 20 19 19 19 19 19 19 19 20 19 20 19 19 19 19 19 19 19 19 18 18 18 18 18 18 18 17 18 19 19 19 19 19 19 19 19 19 19 19 19 19
21 20 20 19 19 19 19 19 19 19 19 19 19 19 19 19 18 18 18 18 18 18 18 18 18 18 18 17 19 18 19 19 19 19 19 19 19 19 19 19 20 19 19
20 19 20 19 19 19 19 19 19 19 19 19 19 19 19 19 18 18 18 18 18 18 18 18 18 17 17 18 18 19 19 19 20 20 19 19 19 19 19 19 19 18 18
20 19 19 19 19 19 19 19 19 19 19 19 19 19 18 18 18 18 18 18 18 19 18 18 18 19 18 18 18 19 19 19 20 20 20 19 20 19 19 19 18 18 18
20 19 19 18 18 19 19 19 19 19 19 19 19 18 18 18 18 19 18 18 18 19 19 18 18 18 19 18 18 18 19 19 19 20 20 20 19 19 18 18 18 18 18
19 19 19 18 18 18 18 18 18 19 19 19 19 19 19 19 18 18 18 18 18 18 18 19 18 18 18 18 18 19 19 19 20 20 20 20 19 19 18 18 18 18 18
18 18 19 19 19 19 19 18 18 18 18 18 18 18 18 18 18 19 19 19 18 18 18 18 18 18 18 18 18 18 18 19 19 20 19 19 19 19 18 18 18 19 18
16 17 17 18 18 18 19 19 18 18 18 18 18 18 18 18 18 18 18 19 18 18 18 18 17 18 18 18 18 18 18 19 19 19 20 19 19 19 18 18 18 18 19
14 14 14 15 17 17 18 19 19 19 19 19 19 19 18 19 19 19 19 18 18 18 18 18 17 17 18 18 18 18 18 19 19 19 20 19 19 18 18 18 18 18 19
12 12 12 13 14 16 18 18 18 19 19 19 19 19 20 20 19 19 19 18 18 18 18 18 18 17 17 17 18 18 18 18 20 20 19 19 19 19 19 18 18 18 18
10 10 11 12 13 14 15 17 18 19 19 19 19 19 20 20 20 18 19 18 18 18 18 18 18 18 18 18 18 18 19 19 19 20 20 19 19 19 19 18 18 18 18
8 8 9 10 11 12 14 15 16 18 18 19 18 19 19 19 19 19 19 19 19 19 18 18 18 18 17 18 18 18 19 19 19 19 20 20 20 19 19 18 18 18 18
7 7 8 9 9 10 11 13 14 16 17 17 17 17 17 18 19 19 19 19 19 19 19 18 18 18 17 18 18 18 19 19 19 20 20 19 19 19 19 19 19 18 18
7 7 7 8 8 9 10 11 12 13 14 15 15 15 15 16 17 17 18 18 19 19 19 19 18 18 17 18 18 18 18 19 19 19 19 19 19 19 19 18 18 18 18
6 6 6 6 7 8 9 10 10 11 12 12 12 13 13 14 14 15 16 17 18 18 18 18 19 18 18 18 18 18 18 19 19 19 19 19 18 19 18 17 18 18 18
5 5 6 6 6 7 8 9 9 10 11 11 11 10 11 11 12 13 14 16 17 17 17 17 18 18 17 17 17 17 18 18 18 18 19 19 18 18 18 17 17 18 18
5 5 5 5 5 6 7 7 8 9 9 9 9 9 10 9 10 11 12 13 14 15 16 16 16 17 17 17 16 16 17 17 17 19 18 18 18 18 18 18 18 17 17
5 4 4 4 5 5 6 6 7 7 8 8 8 8 7 8 9 9 10 11 12 13 14 15 16 16 16 16 16 16 16 16 16 16 17 18 18 18 18 18 18 17 17
4 4 3 4 4 5 5 6 6 7 7 7 7 7 6 7 7 8 8 9 10 12 12 12 14 15 16 16 16 17 16 16 16 15 16 17 18 18 18 18 18 18 17
3 3 3 3 3 4 4 5 5 6 6 6 6 6 6 6 6 7 7 8 9 9 11 12 12 13 13 14 15 16 16 16 16 16 16 16 17 17 17 17 18 18 18
3 2 2 2 2 2 3 2 3 3 4 5 5 5 5 5 5 6 5 6 7 8 8 9 10 11 12 13 13 15 15 16 16 16 16 16 16 16 16 17 17 17 17
2 2 2 1 1 1 1 1 1 2 3 3 4 3 3 3 4 4 4 5 5 5 7 7 8 9 10 12 13 13 12 15 16 17 17 17 16 16 16 16 17 17 17
2 1 1 1 1 1 0 0 0 1 1 1 2 1 1 2 2 3 4 4 4 4 4 5 6 7 8 9 11 12 12 12 13 17 17 17 17 17 16 16 17 17 17
2 1 1 1 1 0 -0 -0 -1 -1 -1 -0 -0 -0 0 1 1 2 2 3 3 3 3 4 4 5 6 7 8 11 12 13 11 12 16 16 16 16 16 16 17 17 18
2 1 1 1 0 0 -0 -1 -1 -1 -1 -1 -1 -1 -1 -0 0 0 1 1 2 2 2 2 3 4 4 4 6 7 9 11 12 12 12 13 15 16 16 16 16 17 17
2 1 1 0 -0 -1 -1 -1 -1 -2 -2 -2 -2 -2 -1 -1 -1 -1 -0 -0 0 0 1 1 1 2 2 3 4 5 7 9 11 11 11 12 13 14 15 15 16 16 16
Height
824 826 828 829 831 831 830 830 830 830 831 831 831 832 833 833 834 834 834 834 834 834 834 834 834 834 833 832 832 831 831 832 832 832 834 834 835 836 836 836 835 835 836
826 828 829 831 833 833 833 833 832 832 833 833 833 834 835 835 836 836 836 836 836 836 836 836 836 836 835 834 834 834 834 834 835 835 836 837 837 838 838 838 837 839 839
829 831 831 833 834 835 836 836 835 835 836 836 836 836 836 836 836 837 837 838 838 838 837 837 837 837 836 836 836 836 836 836 837 837 838 839 839 840 840 840 840 840 841
832 834 834 835 836 837 837 837 837 837 838 837 838 838 838 838 838 838 838 838 839 839 839 838 838 838 838 838 838 838 838 838 839 839 840 841 840 842 842 842 843 843 844
836 836 838 838 839 839 839 839 839 840 840 840 840 840 840 840 840 840 840 840 840 840 840 840 840 839 839 840 840 840 840 840 840 840 841 841 842 843 843 844 845 845 845
840 840 841 841 841 841 840 840 841 840 841 841 840 840 840 841 840 841 841 841 841 841 841 841 841 841 841 841 841 842 842 842 842 842 842 841 842 843 844 845 846 847 847
843 844 844 845 844 843 843 842 842 842 842 842 842 842 842 841 841 840 840 841 842 842 842 842 842 842 842 841 842 843 843 843 843 843 844 843 843 843 844 846 847 848 848
844 844 844 845 846 846 845 844 844 843 843 843 842 842 842 842 841 841 841 841 840 841 841 842 842 842 842 842 842 842 843 843 843 843 845 845 844 844 845 846 847 848 849
848 848 848 847 846 847 848 847 846 845 845 844 844 843 842 842 841 841 841 841 841 840 840 841 841 841 842 842 841 842 842 843 843 843 845 844 845 845 846 847 848 849 849
853 851 851 850 849 848 848 849 848 847 846 845 844 844 843 842 841 841 840 840 840 840 840 839 839 839 840 841 841 841 841 842 842 842 844 844 844 845 846 848 848 849 850
854 853 852 850 849 848 848 848 848 848 848 847 846 845 844 843 842 842 842 841 840 839 838 838 838 838 838 838 839 839 840 840 841 841 842 842 843 844 845 846 847 849 850
858 857 855 853 851 849 848 848 848 848 848 848 846 845 844 844 843 843 842 841 839 839 838 837 837 837 836 837 837 838 838 838 839 840 841 841 842 842 843 844 845 847 849
865 862 859 856 855 852 851 850 850 849 849 849 847 846 845 843 842 842 841 840 839 838 838 837 836 835 835 835 836 836 837 837 838 839 839 839 840 840 841 841 842 845 846
867 865 863 860 857 855 855 853 851 850 849 850 849 847 846 844 842 841 840 840 840 839 837 837 836 835 835 834 834 836 836 836 836 837 837 837 838 838 840 840 841 843 844
871 869 867 864 860 859 856 856 855 854 853 852 849 848 847 846 843 842 841 840 839 839 838 837 835 834 834 833 833 832 833 834 834 833 835 835 835 836 837 838 839 841 841
875 873 870 866 864 861 859 859 859 857 856 854 853 852 850 848 846 844 842 841 839 838 837 836 835 833 833 831 831 831 830 830 831 831 831 831 832 833 834 835 837 838 839
878 876 872 870 867 865 863 861 860 860 858 857 856 855 853 851 849 846 843 841 839 837 835 835 834 833 831 830 829 828 828 827 826 826 827 828 828 829 831 831 833 835 836
879 878 876 873 871 868 866 865 863 861 861 860 857 856 855 853 850 847 845 842 840 837 836 835 833 832 830 828 827 826 825 825 824 823 822 823 824 825 826 828 829 832 832
883 881 878 876 873 871 869 867 866 864 863 861 860 858 855 853 851 850 847 844 841 838 836 834 832 830 828 827 826 823 822 821 820 820 819 819 819 820 821 822 825 826 828
885 883 882 879 877 875 872 869 867 865 864 863 861 859 857 854 851 849 847 845 842 839 836 834 832 829 827 825 824 821 819 818 817 816 815 814 815 815 817 817 818 819 822
887 884 883 882 880 876 873 871 868 866 865 863 861 859 857 855 852 849 847 844 842 840 837 835 833 830 827 825 822 818 816 814 812 811 810 809 809 809 810 812 812 814 816
889 888 884 883 882 880 877 875 874 870 867 865 861 858 856 854 852 849 847 843 841 838 836 834 832 829 827 825 823 818 814 809 806 803 803 803 803 804 805 805 807 808 809
891 889 887 885 882 882 879 875 873 870 867 864 859 856 854 852 850 848 846 843 840 837 834 833 831 829 826 822 821 820 813 809 804 798 797 797 799 799 800 801 801 802 803
891 890 888 886 883 881 880 877 874 871 867 864 861 857 853 850 847 846 843 841 839 835 832 829 828 827 825 821 817 815 812 810 808 803 796 795 796 796 796 796 796 796 797
892 891 889 886 883 881 880 878 874 872 869 864 859 856 851 848 845 843 840 837 835 833 829 827 824 822 821 819 817 813 809 805 803 802 797 794 792 791 791 791 792 792 792
893 892 890 887 884 882 880 878 874 870 866 861 857 853 849 845 841 840 837 834 831 828 826 823 821 818 816 814 812 810 807 804 797 795 793 791 789 786 787 786 785 786 787
Wind_Speed
12 12 9 9 9 10 11 12 14 12 11 12 10 11 11 11 11 10 10 9 9 11 10 10 11 11 11 12 11 10 12 12 13 14 13 12 14 14 14 14 17 19 19
12 13 11 10 10 10 11 12 12 10 11 12 12 11 11 11 9 8 8 9 10 10 10 9 9 10 8 10 9 9 10 11 11 12 11 10 12 12 9 14 16 15 16
23 17 14 11 11 10 10 10 10 9 9 9 8 8 8 8 8 8 8 8 8 9 9 9 8 7 7 8 9 9 8 9 10 10 10 7 9 11 10 8 11 12 13
20 17 18 14 12 10 9 9 8 8 8 8 8 8 8 8 8 8 7 7 6 6 7 7 7 7 7 8 7 8 8 6 8 6 7 7 8 9 8 10 9 11 12
17 18 17 15 14 12 11 10 9 8 8 7 7 7 7 7 6 6 5 5 3 4 5 5 6 6 7 7 6 7 8 8 6 7 3 5 6 7 9 8 8 10 10
20 22 19 16 14 13 12 12 10 9 7 6 5 4 4 3 4 4 4 3 2 2 3 3 4 4 4 5 5 5 6 7 5 5 2 4 3 7 8 7 8 7 7
25 23 25 21 20 17 13 11 9 8 7 6 5 4 3 2 1 1 2 3 2 2 2 3 2 2 1 1 2 2 3 2 2 3 2 4 4 9 8 7 7 6 7
22 18 18 19 20 18 18 13 10 9 8 6 5 4 4 3 3 3 2 1 1 1 3 3 3 2 3 2 2 2 2 3 2 3 1 3 1 8 7 7 8 6 6
20 19 18 16 14 16 16 17 14 12 10 9 7 7 6 4 4 4 5 3 4 4 4 4 5 5 5 5 5 6 5 3 2 2 1 5 2 7 6 7 6 7 6
23 23 23 20 17 13 15 13 13 13 12 11 12 13 9 7 4 4 5 4 5 6 6 6 6 7 7 7 8 8 8 7 5 1 2 4 3 8 6 7 7 6 6
27 27 26 24 22 18 16 11 12 13 13 13 12 12 13 10 9 3 7 8 9 9 7 8 8 8 8 9 9 9 10 9 8 5 9 9 5 6 11 11 9 9 7
31 31 29 26 25 21 17 16 17 14 14 10 13 11 13 11 10 9 8 9 9 8 8 9 9 10 11 10 10 10 10 10 9 9 9 10 10 10 9 11 13 13 11
24 28 29 27 26 24 22 17 20 19 16 15 15 14 11 12 12 11 11 10 9 11 9 8 8 9 10 10 11 11 8 4 9 10 11 10 10 11 10 8 18 16 14
25 27 27 27 26 24 25 20 19 18 17 19 17 17 16 15 14 15 11 13 11 10 11 8 9 9 12 13 15 15 13 13 12 13 8 10 10 12 10 6 13 17 16
25 27 28 28 28 25 26 23 22 21 22 21 20 16 17 17 17 16 13 13 14 12 12 12 12 10 10 12 13 14 15 14 13 12 14 12 10 11 11 10 12 18 18
23 26 26 28 28 27 26 24 22 24 22 23 25 25 20 22 17 15 15 16 14 13 13 12 12 13 11 11 14 12 13 14 14 10 14 12 13 12 14 13 14 14 16
22 23 26 27 27 27 25 25 23 24 21 23 22 21 19 23 24 18 18 18 19 18 13 14 15 15 17 14 10 11 10 13 15 19 14 14 13 11 13 16 17 19 18
20 23 24 26 27 27 26 25 23 23 22 22 19 21 24 21 20 20 21 20 19 16 16 17 16 17 14 12 15 16 16 16 14 13 17 20 13 17 17 16 21 22 22
20 22 24 26 28 28 26 25 25 22 22 21 22 24 24 23 24 21 18 20 20 19 17 19 18 17 17 16 17 18 17 16 18 19 21 21 22 19 20 18 19 23 24
17 19 22 24 26 28 28 27 27 27 23 23 22 26 23 24 25 26 23 20 17 19 20 22 24 23 21 19 18 19 19 16 18 19 20 22 25 24 23 21 20 22 25
17 20 22 24 25 27 31 31 30 30 24 25 20 26 23 25 26 25 25 26 22 20 18 19 19 21 25 22 23 18 18 19 22 25 25 25 27 25 26 27 25 24 24
16 18 19 21 23 23 26 25 24 26 23 22 22 25 22 25 25 25 23 25 25 24 22 19 20 23 20 19 17 19 4 10 21 25 28 29 27 23 23 27 30 28 28
16 17 18 19 21 21 24 25 27 26 25 24 31 30 27 26 25 23 23 25 25 22 23 23 21 21 20 23 20 12 3 4 4 6 13 26 23 24 24 26 27 30 29
13 16 18 19 21 22 24 25 24 22 23 25 26 29 32 31 27 22 23 24 25 24 22 21 21 23 23 20 23 20 25 24 4 4 10 7 13 16 19 25 24 25 29
13 16 18 20 21 24 23 23 24 25 25 27 28 28 30 29 27 27 28 25 24 25 25 26 24 22 21 22 19 20 22 24 24 12 8 12 23 19 19 23 28 25 25
13 15 17 17 19 19 20 22 22 24 26 26 26 27 25 24 24 24 25 28 28 27 24 25 26 25 26 25 24 26 22 16 12 15 8 13 16 24 25 23 22 23 30
Wind_Direction
89 90 76 70 72 72 74 80 84 88 83 91 87 78 79 81 80 78 76 69 63 70 73 69 72 78 72 66 62 76 88 89 90 95 96 103 103 90 95 101 112 110 111
86 85 79 74 72 70 72 78 86 77 82 82 81 81 78 79 71 66 64 69 74 73 75 74 76 75 67 67 64 72 97 95 98 95 89 89 114 107 101 118 108 110 110
87 76 79 77 74 73 74 72 72 75 76 78 81 72 69 67 65 66 70 73 76 76 77 76 76 77 71 66 72 74 91 108 100 99 102 86 119 107 115 119 109 108 109
78 75 71 70 73 73 74 70 72 72 69 65 66 64 63 65 62 68 75 84 76 72 70 71 71 74 75 76 69 69 71 98 119 65 27 168 136 130 136 123 112 113 113
74 70 66 64 62 61 62 61 57 55 55 56 60 59 57 55 59 57 59 67 81 60 61 60 64 72 73 76 74 70 74 94 89 65 33 137 127 159 132 125 123 121 124
72 67 60 57 59 59 57 52 51 51 53 55 52 61 64 57 44 36 25 24 38 47 34 52 58 66 78 75 67 63 70 104 77 58 349 295 188 174 148 131 132 136 145
57 53 46 46 43 43 43 49 51 50 49 47 43 35 24 27 23 20 29 37 18 349 350 352 14 24 47 86 75 52 38 55 74 89 26 344 155 159 144 159 158 152 154
49 51 52 47 38 33 32 31 37 37 34 30 21 12 2 352 341 325 307 298 267 285 303 294 293 293 297 287 271 276 328 18 114 331 185 298 297 166 160 172 166 161 165
44 43 41 40 43 38 16 19 29 30 29 24 13 0 346 339 345 323 306 299 282 277 275 265 269 263 273 283 274 270 273 284 232 58 197 252 253 166 169 196 187 175 198
35 32 29 27 27 36 36 11 9 21 23 26 19 17 12 350 323 341 338 295 292 282 273 266 260 260 260 272 274 266 263 258 245 240 228 253 255 218 228 224 217 202 207
27 23 21 23 21 21 22 16 30 4 5 7 4 12 352 7 6 3 327 306 307 290 276 269 262 259 260 260 267 270 258 249 232 259 240 234 251 226 232 230 227 206 207
22 19 18 20 18 15 28 21 13 21 8 18 13 12 360 358 338 339 328 325 330 308 297 286 274 265 261 267 264 267 262 250 231 278 251 239 251 251 250 240 226 203 204
27 25 21 22 21 24 18 23 22 15 19 11 15 6 358 357 5 343 345 337 348 325 310 288 287 277 266 264 247 259 264 250 252 251 255 249 254 260 260 257 210 200 204
31 28 25 27 30 28 23 21 24 27 27 22 18 19 12 3 360 358 356 350 338 327 318 311 288 283 268 261 258 252 245 237 237 241 270 257 257 261 247 242 210 210 203
32 28 25 27 32 30 39 29 19 14 22 27 36 37 31 16 5 359 351 348 337 338 327 318 307 295 288 280 269 262 250 250 242 239 243 249 243 243 235 228 219 210 210
33 29 27 28 33 33 37 33 28 27 20 19 25 17 14 8 4 2 355 346 348 340 327 326 315 299 306 293 283 265 266 251 246 246 249 252 252 245 232 219 223 224 221
35 31 31 27 33 36 36 34 31 26 33 26 20 16 16 15 10 358 357 357 350 339 338 324 317 309 298 291 292 283 278 265 256 239 239 243 256 247 238 225 226 223 221
39 33 32 32 34 34 34 32 32 33 24 22 14 14 10 3 7 5 356 347 352 354 339 329 319 316 315 294 285 284 274 268 263 257 250 236 236 242 248 242 230 229 226
38 32 31 28 29 29 31 28 27 27 21 23 7 11 8 2 1 358 1 349 344 339 340 341 332 324 310 302 295 291 279 274 262 259 254 250 239 235 240 237 235 233 230
41 35 29 27 23 20 20 19 17 17 14 10 1 1 1 353 356 354 347 342 347 345 330 327 330 320 324 316 303 295 284 287 279 269 262 259 250 242 236 234 232 232 231
35 33 26 20 18 13 13 10 3 1 358 357 351 346 350 343 347 347 338 339 341 332 331 325 317 317 314 313 320 303 284 283 272 262 259 253 259 253 245 239 236 234 234
29 24 21 18 11 10 5 0 357 351 344 346 331 343 342 337 341 336 333 329 332 331 324 322 327 318 316 303 303 300 290 280 262 257 254 249 252 252 246 246 240 237 239
21 14 10 8 5 2 357 353 348 344 341 339 337 333 332 332 328 332 325 323 322 321 321 319 309 321 311 306 298 283 302 246 353 293 283 239 248 247 253 250 244 242 235
13 5 1 358 356 353 350 346 344 337 330 327 324 322 322 324 326 319 314 318 316 314 311 309 311 304 305 306 304 289 274 270 273 294 284 249 258 256 253 249 250 249 246
4 357 351 348 345 343 338 336 331 324 317 315 314 313 314 316 315 312 313 311 310 308 307 305 304 303 296 296 301 299 304 269 267 257 269 266 270 265 267 254 246 244 240
353 347 342 340 335 332 329 324 321 316 313 310 308 307 307 305 303 301 303 302 300 300 301 300 300 295 291 288 287 285 287 284 266 243 245 252 250 257 260 263 258 252 246